Torna al catalogo

STARLINK-5135

AttivoComunicazioniVLEO
NORAD 54005·PAYLOAD·🇺🇸 United States

Lanciato Oct 5, 2022 da Vandenberg Space Force Base

Loading…

Prossimi Passaggi (prossime 24 ore)

TLE

AggiornatoSource: CelesTrak SupGP

Epoca: Sep 15, 2026, 02:43 UTC

1 54005C 22125AT  26258.11368056 -.00028714  00000+0 -18008-2 0  2589
2 54005  53.1580  82.8547 0001327  85.5143 253.5367 15.08847024    12

Traccia STARLINK-5135 in tempo reale con AllMySat

Download on the App Store